[[{"header":{"parameterUnit":"m.s-1","parameterCategory":1,"la1":30.2991,"la2":30.254,"lo1":-89.0895,"lo2":-89.0444,"dy":0.0017,"dx":0.0017,"nx":28,"ny":28,"refTime":"2024-08-05T21:00:00:Z","depth":0,"parameterNumber":2,"parameterNumberName":"U-component_of_WINDS"},"data":[0,0,0,0,0,0,0,0,0,0,0,0,0,0,0,0,0,0,0,0,0,0,0,0,0,0,0,0,0,0,0,0,0,0,0,0,0,0,0,0,0,0,0,0,0,0,0,0,0,0,0,0,0,0,0,0,0,0,2.5462,2.5463,0,2.5509,2.551,2.551,2.5509,2.5509,2.5508,2.5508,2.5557,2.5559,2.5561,0,0,0,0,0,0,0,0,0,0,0,0,0,2.5377,2.5379,2.5462,2.5463,2.5463,2.5509,2.551,2.551,2.551,2.5509,2.5508,2.5507,2.5557,2.5559,2.5561,0,0,0,0,0,0,0,0,0,0,0,0,0,2.5418,2.5379,2.5462,2.5469,2.547,2.5509,2.551,2.5511,2.551,2.5509,2.5508,2.5507,2.5556,2.5559,2.5562,2.5598,0,0,2.557,2.5572,0,0,0,0,0,0,0,0,2.5416,2.5421,2.5467,2.5468,2.5469,2.5502,2.5498,2.554,2.551,2.5495,2.5508,2.5506,2.554,2.5544,2.5555,2.5601,2.5603,2.5571,2.5572,2.5574,2.5574,0,0,0,0,0,0,0,2.5413,2.5419,2.5481,2.5468,2.5469,2.5471,2.5476,2.5506,2.5522,2.5496,2.5496,2.5501,2.554,2.5552,2.5556,2.5603,2.5571,2.5573,2.5575,2.5576,2.5687,2.5688,0,0,0,0,0,0,2.5408,2.5417,2.5479,2.5482,2.544,2.5473,2.5478,2.5493,2.5522,2.5525,2.5502,2.5501,2.5548,2.5553,2.5558,2.5606,2.5574,2.5576,2.5578,2.5686,2.5687,2.5689,0,0,0,0,0,0,2.5407,2.5414,2.5477,2.545,2.5458,2.5475,2.5492,2.5494,2.5506,2.5526,2.553,2.5511,2.5547,2.5554,2.5589,2.5608,2.5578,2.558,2.5684,2.5686,2.5688,2.5701,0,0,0,0,0,0,2.5404,2.5413,2.5426,2.545,2.5459,2.5506,2.5493,2.5496,2.5511,2.551,2.5535,2.5539,2.5547,2.5585,2.5592,2.5611,2.5582,2.5683,2.5685,2.5688,2.5699,2.5703,2.5706,0,0,0,0,0,2.5401,2.5427,2.5426,2.5434,2.5475,2.5507,2.5513,2.5521,2.5512,2.5526,2.554,2.5538,2.5605,2.5589,2.5597,2.5617,2.5682,2.5685,2.5687,2.5697,2.5702,2.5706,0,0,0,0,0,0,2.5404,2.543,2.543,2.5464,2.5484,2.5507,2.5525,2.5525,2.5548,2.5547,2.5557,2.5563,2.5599,2.5611,2.5593,2.5657,2.5642,2.5647,2.5647,2.5652,2.5655,2.5652,2.5585,0,0,0,0,0,2.5408,2.5431,2.5453,2.5481,2.5491,2.5507,2.5521,2.5526,2.5547,2.5555,2.5571,2.5593,2.5619,2.5636,2.5661,2.5701,2.5708,2.5719,2.5723,2.5726,2.573,2.5756,2.5762,2.5698,2.5698,2.5698,0,0,2.5418,2.5435,2.5449,2.5482,2.5498,2.5524,2.5513,2.5539,2.5559,2.5559,2.5594,2.5608,2.5633,2.5672,2.569,2.5683,2.575,2.5729,2.5731,2.5734,2.576,2.5766,2.5771,2.57,2.5699,2.5699,0,0,2.5449,2.5463,2.5489,2.5506,2.5531,2.5542,2.5548,2.5573,2.5582,2.5618,2.562,2.5644,2.5688,2.5707,2.5722,2.5766,2.5766,2.5774,2.5793,2.5819,2.5824,2.5829,2.5848,2.5854,2.5778,2.5778,2.5778,0,2.5458,2.5494,2.5503,2.5531,2.5547,2.555,2.5579,2.5595,2.5626,2.5639,2.5631,2.5689,2.5706,2.5752,2.5763,2.5774,2.5785,2.5771,2.5823,2.5827,2.5832,2.585,2.5857,2.5779,2.5779,2.5779,2.5778,0,2.5506,2.5532,2.5551,2.5583,2.5601,2.5629,2.5645,2.5663,2.5668,2.568,2.5719,2.574,2.5771,2.5782,2.5786,2.583,2.5826,2.582,2.5806,2.5839,2.5856,2.5863,2.578,2.578,2.5779,2.5779,0,0,2.5537,2.5576,2.5583,2.5599,2.5629,2.565,2.5681,2.5711,2.5728,2.5751,2.5779,2.5818,2.5815,2.5833,2.584,2.5862,2.59,2.5855,2.5856,2.5865,2.5954,2.5959,2.5966,2.5901,2.5902,2.5903,2.5953,0,2.5573,2.5625,2.5636,2.5682,2.5709,2.5714,2.5741,2.5763,2.5777,2.5803,2.5818,2.5847,2.5839,2.5851,2.5873,2.589,2.5918,2.5887,2.5929,2.593,2.5924,2.5975,2.5979,2.6025,2.5959,2.596,2.5961,0,2.562,2.5646,2.5695,2.5725,2.5737,2.576,2.5792,2.5816,2.5843,2.5852,2.5874,2.588,2.5915,2.59,2.595,2.5929,2.5947,2.5959,2.5961,2.5966,2.5948,2.5983,2.6039,2.6047,2.5971,2.597,2.597,0,2.5642,2.5688,2.5725,2.5738,2.5773,2.5791,2.5806,2.5833,2.5852,2.5881,2.5894,2.5926,2.5944,2.597,2.5986,2.5973,2.6037,2.6021,2.6047,2.6047,2.606,2.6059,2.6122,2.607,2.607,2.6069,2.6069,0,2.5681,2.5711,2.5735,2.5757,2.5793,2.5807,2.5843,2.5859,2.5883,2.5911,2.5918,2.5944,2.5963,2.5993,2.6006,2.6048,2.6055,2.6065,2.6069,2.6065,2.6065,2.6078,2.6076,2.6071,2.6071,2.6071,2.607,0,2.571,2.5727,2.5767,2.5799,2.5808,2.5833,2.5861,2.5885,2.59,2.5935,2.5945,2.5969,2.6005,2.6024,2.6069,2.6078,2.6126,2.6126,2.6117,2.6118,2.6144,2.6142,2.6219,2.6231,2.6169,2.6169,2.617,0,2.5734,2.5758,2.5793,2.5812,2.5828,2.5858,2.5879,2.5895,2.5917,2.5953,2.5973,2.601,2.604,2.6099,2.6122,2.6158,2.616,2.6185,2.6165,2.6163,2.6164,2.6163,2.6167,2.6188,2.6189,2.6189,2.619,0,2.5776,2.5785,2.5813,2.5847,2.5871,2.5898,2.5925,2.5941,2.5962,2.5987,2.6024,2.6048,2.6095,2.6133,2.6171,2.619,2.6195,2.6196,2.6204,2.6202,2.6196,2.6203,2.6128,2.6194,2.6193,2.6193,2.6193,2.6193,2.5805,2.5829,2.5858,2.5891,2.5913,2.5939,2.5964,2.5984,2.6015,2.6055,2.6063,2.6104,2.6136,2.6188,2.6209,2.6243,2.6238,2.6249,2.6252,2.6255,2.6258,2.619,2.6249,2.6249,2.6249,2.6249,2.6249,0,2.585,2.587,2.5901,2.5939,2.5966,2.5968,2.5999,2.6023,2.6058,2.6087,2.6118,2.6163,2.6201,2.6229,2.6268,2.6291,2.6294,2.6301,2.63,2.6305,2.6258,2.6248,2.6298,2.6298,2.6298,2.6298,2.6298,2.6298,2.5877,2.5917,2.593,2.5983,2.6003,2.6043,2.6061,2.6087,2.611,2.6161,2.6192,2.621,2.624,2.6283,2.6319,2.6327,2.6342,2.6349,2.6357,2.6313,2.6308,2.6303,2.6294,2.6352,2.6352,2.6401,2.6402,2.6402]},{"header":{"parameterUnit":"m.s-1","parameterCategory":1,"la1":30.2991,"la2":30.254,"lo1":-89.0895,"lo2":-89.0444,"dy":0.0017,"dx":0.0017,"nx":28,"ny":28,"refTime":"2024-08-05T21:00:00:Z","depth":0,"parameterNumber":3,"parameterNumberName":"V-component_of_WINDS"},"data":[0,0,0,0,0,0,0,0,0,0,0,0,0,0,0,0,0,0,0,0,0,0,0,0,0,0,0,0,0,0,0,0,0,0,0,0,0,0,0,0,0,0,0,0,0,0,0,0,0,0,0,0,0,0,0,0,0,0,-0.5901,-0.5898,0,-0.5641,-0.5638,-0.5635,-0.5671,-0.5675,-0.568,-0.5684,-0.5407,-0.5396,-0.5384,0,0,0,0,0,0,0,0,0,0,0,0,0,-0.6419,-0.6409,-0.5901,-0.5898,-0.5895,-0.5641,-0.5638,-0.5634,-0.567,-0.5675,-0.5681,-0.5686,-0.541,-0.5397,-0.5383,0,0,0,0,0,0,0,0,0,0,0,0,0,-0.618,-0.6406,-0.5902,-0.5883,-0.5878,-0.5642,-0.5638,-0.5633,-0.5669,-0.5676,-0.5682,-0.5688,-0.5415,-0.5398,-0.5381,-0.5145,0,0,-0.5329,-0.5321,0,0,0,0,0,0,0,0,-0.6193,-0.6161,-0.5889,-0.5883,-0.5878,-0.5695,-0.5719,-0.5469,-0.5667,-0.5748,-0.5684,-0.5691,-0.5497,-0.5473,-0.541,-0.5132,-0.512,-0.5327,-0.5317,-0.531,-0.5305,0,0,0,0,0,0,0,-0.621,-0.6172,-0.5798,-0.5885,-0.5878,-0.5883,-0.5857,-0.5672,-0.5588,-0.5742,-0.5744,-0.5713,-0.5495,-0.5426,-0.5403,-0.5116,-0.5328,-0.5313,-0.5302,-0.5295,-0.4628,-0.4621,0,0,0,0,0,0,-0.6233,-0.6186,-0.5806,-0.579,-0.6055,-0.5869,-0.5839,-0.5747,-0.5591,-0.5573,-0.5708,-0.5716,-0.5452,-0.5423,-0.5394,-0.5105,-0.531,-0.5294,-0.5284,-0.4635,-0.4626,-0.4618,0,0,0,0,0,0,-0.6244,-0.6199,-0.5817,-0.5988,-0.594,-0.5853,-0.575,-0.5739,-0.567,-0.5565,-0.555,-0.5653,-0.5456,-0.5418,-0.5207,-0.5096,-0.5286,-0.527,-0.4644,-0.4633,-0.4622,-0.4525,0,0,0,0,0,0,-0.6259,-0.6203,-0.6114,-0.5986,-0.5931,-0.5637,-0.5743,-0.5729,-0.5642,-0.5649,-0.551,-0.5493,-0.5458,-0.5232,-0.519,-0.5075,-0.5257,-0.4654,-0.4639,-0.4626,-0.4538,-0.4512,-0.449,0,0,0,0,0,-0.6277,-0.6095,-0.611,-0.6064,-0.5819,-0.563,-0.5598,-0.5565,-0.5633,-0.5541,-0.5474,-0.5497,-0.5116,-0.521,-0.5163,-0.5041,-0.466,-0.4643,-0.4627,-0.4549,-0.4517,-0.4491,0,0,0,0,0,0,-0.6209,-0.6078,-0.6093,-0.5865,-0.5759,-0.5637,-0.552,-0.5533,-0.5403,-0.5415,-0.5377,-0.5345,-0.5131,-0.5065,-0.5173,-0.4803,-0.4897,-0.487,-0.4853,-0.4823,-0.4799,-0.4818,-0.5243,0,0,0,0,0,-0.6168,-0.6029,-0.5921,-0.573,-0.5677,-0.5608,-0.5524,-0.5508,-0.5395,-0.5349,-0.5267,-0.5153,-0.5008,-0.4912,-0.4772,-0.453,-0.4498,-0.4423,-0.4399,-0.438,-0.4356,-0.422,-0.4185,-0.4563,-0.4564,-0.4564,0,0,-0.608,-0.5992,-0.5906,-0.5714,-0.563,-0.5483,-0.5569,-0.5411,-0.53,-0.5324,-0.512,-0.5055,-0.4926,-0.4698,-0.4593,-0.4636,-0.4245,-0.4359,-0.4345,-0.433,-0.4199,-0.4164,-0.4132,-0.4552,-0.4554,-0.4556,0,0,-0.5846,-0.5767,-0.5598,-0.5513,-0.5386,-0.5342,-0.5301,-0.5177,-0.5136,-0.4931,-0.4946,-0.4812,-0.4563,-0.4469,-0.4389,-0.412,-0.4135,-0.4075,-0.3949,-0.3817,-0.3787,-0.3761,-0.3662,-0.3627,-0.4052,-0.4052,-0.4052,0,-0.5752,-0.5535,-0.5509,-0.5349,-0.5262,-0.5282,-0.5108,-0.5026,-0.4858,-0.4796,-0.4849,-0.4536,-0.445,-0.4199,-0.4133,-0.4069,-0.4018,-0.4089,-0.3795,-0.3768,-0.3742,-0.3647,-0.361,-0.4045,-0.4046,-0.4047,-0.4048,0,-0.5425,-0.5274,-0.5152,-0.4994,-0.4894,-0.4728,-0.4673,-0.4575,-0.4568,-0.4516,-0.4306,-0.4205,-0.4044,-0.3984,-0.3974,-0.373,-0.3761,-0.3804,-0.3897,-0.37,-0.361,-0.3573,-0.4036,-0.4038,-0.404,-0.4042,0,0,-0.5137,-0.4968,-0.4923,-0.4851,-0.4712,-0.4593,-0.4427,-0.4273,-0.4188,-0.4072,-0.3928,-0.3718,-0.3757,-0.3666,-0.3646,-0.3531,-0.332,-0.3588,-0.3584,-0.3539,-0.3042,-0.3008,-0.2966,-0.3332,-0.3325,-0.3319,-0.3052,0,-0.4887,-0.4597,-0.4568,-0.4306,-0.4165,-0.4181,-0.4036,-0.3933,-0.3881,-0.375,-0.3692,-0.3542,-0.3607,-0.3552,-0.3439,-0.337,-0.3219,-0.3389,-0.3194,-0.3187,-0.3223,-0.292,-0.2883,-0.2635,-0.3017,-0.3011,-0.3006,0,-0.4556,-0.4433,-0.4158,-0.4039,-0.3978,-0.3849,-0.3705,-0.3581,-0.3464,-0.3434,-0.3333,-0.3328,-0.3153,-0.3255,-0.3011,-0.3128,-0.3046,-0.3,-0.299,-0.2967,-0.3083,-0.2886,-0.2556,-0.2518,-0.2951,-0.2956,-0.296,0,-0.437,-0.4136,-0.3941,-0.3879,-0.3735,-0.3643,-0.3578,-0.3469,-0.3378,-0.3251,-0.3191,-0.3044,-0.2963,-0.2848,-0.2802,-0.2882,-0.2559,-0.2659,-0.2526,-0.2527,-0.2454,-0.2459,-0.2104,-0.2408,-0.2408,-0.2409,-0.241,0,-0.4091,-0.3921,-0.3856,-0.3735,-0.3544,-0.3512,-0.3323,-0.3263,-0.3164,-0.303,-0.3035,-0.2907,-0.2857,-0.2721,-0.2684,-0.2486,-0.2449,-0.2417,-0.2409,-0.2415,-0.2418,-0.2358,-0.2373,-0.2399,-0.2401,-0.2403,-0.2405,0,-0.385,-0.38,-0.3587,-0.3471,-0.3437,-0.3301,-0.3199,-0.308,-0.3032,-0.2861,-0.2819,-0.2739,-0.2579,-0.2524,-0.2328,-0.2304,-0.2072,-0.208,-0.2112,-0.211,-0.1979,-0.1991,-0.157,-0.1511,-0.1857,-0.1854,-0.1851,0,-0.3674,-0.3544,-0.3414,-0.3326,-0.3259,-0.3117,-0.3025,-0.2988,-0.2891,-0.2748,-0.2646,-0.2488,-0.2359,-0.2102,-0.2024,-0.1874,-0.1876,-0.1739,-0.1853,-0.1863,-0.187,-0.1877,-0.1862,-0.1717,-0.1713,-0.171,-0.1708,0,-0.3366,-0.3348,-0.3217,-0.3076,-0.2967,-0.2854,-0.2744,-0.2671,-0.2618,-0.2508,-0.2346,-0.2246,-0.2049,-0.189,-0.1737,-0.1666,-0.1675,-0.1673,-0.1634,-0.1637,-0.166,-0.1642,-0.205,-0.1682,-0.1685,-0.1686,-0.1688,-0.1689,-0.3149,-0.3034,-0.2925,-0.2778,-0.2693,-0.259,-0.2473,-0.241,-0.2276,-0.2114,-0.21,-0.1924,-0.1808,-0.1605,-0.1527,-0.1387,-0.1425,-0.1368,-0.1353,-0.1339,-0.1328,-0.1686,-0.1359,-0.136,-0.1361,-0.1361,-0.1362,0,-0.2839,-0.277,-0.2636,-0.2484,-0.2367,-0.2392,-0.2272,-0.2172,-0.2018,-0.1912,-0.1786,-0.1598,-0.1445,-0.1356,-0.1202,-0.1106,-0.1106,-0.1066,-0.1071,-0.1054,-0.1305,-0.1353,-0.1068,-0.1069,-0.1069,-0.1069,-0.1069,-0.1069,-0.2663,-0.2469,-0.2438,-0.22,-0.2131,-0.1962,-0.1891,-0.1795,-0.1709,-0.1501,-0.1375,-0.132,-0.1219,-0.1057,-0.0916,-0.0894,-0.0835,-0.0791,-0.0771,-0.1006,-0.1036,-0.1065,-0.111,-0.0779,-0.0779,-0.0532,-0.0529,-0.0528]}]]